Regional Weather Roundup
Issued by NWS

Home | Current Version | Previous Version | Text Only | Print | Product List | Glossary Off
Versions: 1 2 3 4 5 6 7 8 9 10 11 12 13 14 15 16 17 18 19 20 21 22 23 24 25 26 27 28 29 30 31 32 33 34 35 36 37 38 39 40 41 42 43 44 45 46 47 48 49 50

000
ASUS44 KMEG 262200
RWRTN
TENNESSEE HOURLY STATE WEATHER ROUNDUP
NATIONAL WEATHER SERVICE MEMPHIS TN
500 PM CDT TUE JUL 26 2016

TNZ002-004-019-021-049-052-054-088>092-262300-
WEST TENNESSEE

CITY           SKY/WX    TMP DP  RH WIND       PRES   REMARKS
MEMPHIS INTL   MOSUNNY   94  71  47 SE6       29.92S HX 101
NWS MEMPHIS      N/A     95 N/A N/A MISG        N/A
JACKSON        CLOUDY    96  71  44 NW5       29.93S HX 103
DYERSBURG      MOSUNNY   93  72  49 MISG      29.93S HX 100
UNION CITY     SUNNY     93  75  55 NW5       29.94S HX 104
PARIS          SUNNY     91  72  52 CALM      29.96S HX  98
LEXINGTON      SUNNY     97  68  38 S5        29.93S HX 101
$$

TNZ008-025-027-028-033-062-065-066-262300-
NORTH MIDDLE TENNESSEE

CITY           SKY/WX    TMP DP  RH WIND       PRES   REMARKS
NASHVILLE      CLOUDY    91  72  53 NW6       29.96F HX  98
CLARKSVILLE    MOSUNNY   92  72  51 SW5       29.96S HX  99
COOKEVILLE     SUNNY     95  73  49 N5        29.98F HX 105
CROSSVILLE     SUNNY     87  70  56 N5        30.05F HX  92
$$

TNZ061-075-076-078-094-096-097-262300-
SOUTH MIDDLE TENNESSEE

CITY           SKY/WX    TMP DP  RH WIND       PRES   REMARKS
TULLAHOMA      SUNNY     93  66  40 SW6       29.99S HX  96
WINCHESTER     MOSUNNY   90  73  58 SE6       29.98S HX  98
MCMINNVILLE    SUNNY     95  72  46 CALM      29.98F HX 103
COLUMBIA       MOSUNNY   91  73  55 CALM      29.94S HX 100
SHELBYVILLE    SUNNY     97  75  49 VRB5      29.97S HX 109
$$

TNZ017-018-042-046-047-262300-
NORTHEAST TENNESSEE

CITY           SKY/WX    TMP DP  RH WIND       PRES   REMARKS
TRI CITIES     PTSUNNY   93  68  43 NW9       30.00F HX  97
$$

TNZ012-013-036-069-073-074-262300-
CENTRAL EAST TENNESSEE

CITY           SKY/WX    TMP DP  RH WIND       PRES   REMARKS
KNOXVILLE      CLOUDY    95  67  39 W5        29.97F HX  99
OAK RIDGE      MOSUNNY   96  67  38 VRB5      29.99F HX 100
GATLINBURG       N/A     90  70  51 VRB5      29.99R HX  95
$$

TNZ083-085-099-262300-
SOUTHEAST TENNESSEE

CITY           SKY/WX    TMP DP  RH WIND       PRES   REMARKS
CHATTANOOGA    PTSUNNY   95  67  39 W9        29.95F HX  99
$$

SKY/WX REPORTED AS FAIR MEANS FEW OR NO CLOUDS BELOW
12 THOUSAND FEET.





USA.gov is the U.S. government's official web portal to all federal, state and local government web resources and services.